Mankato, MN

5:34 AM CST on November 20, 2019 (GMT -0600)
Mankato Regional

Weather History for KMKT - September, 2019

Change the Weather History Date:

Tuesday, September 24, 2019

  Actual Average Record
Temperature  
Mean Temperature 70 °F -  
Max Temperature 82 °F 65 °F 89 °F (2017)
Min Temperature 59 °F 45 °F 32 °F (2002)
Cooling Degree Days 6    
Growing Degree Days 20 (Base 50)    
Moisture  
Dew Point 62 °F    
Average Humidity 83    
Maximum Humidity 100    
Minimum Humidity 62    
Precipitation  
Precipitation 0.24 in - - ()
Sea Level Pressure  
Sea Level Pressure 29.69 in    
Wind  
Wind Speed 9 mph ()    
Max Wind Speed 40 mph    
Max Gust Speed 64 mph    
Visibility 9.2 miles    
Events Rain , Thunderstorm    
Averages and records for this station are not official NWS values.
T = Trace of Precipitation, MM = Missing Value Source: Averaged Metar Reports

Daily Weather History Graph

Daily Weather History Graph

Search for Another Location

Airport or City:

Astronomy

Sep. 24, 2019 Rise Set
Actual Time 7:04 AM CDT 7:09 PM CDT
Civil Twilight 6:36 AM CDT 7:38 PM CDT
Nautical Twilight 6:02 AM CDT 8:12 PM CDT
Astronomical Twilight 5:27 AM CDT 8:46 PM CDT
Moon 1:37 AM CDT (9/24) 5:08 PM CDT (9/24)
Length of Visible Light 13h 02m
Length of Day
12h 04m
Waning Crescent, 23% of the Moon is Illuminated
Sep 24
Waning Crescent
Sep 28
New
Oct 5
First Quarter
Oct 13
Full
Oct 21
Last Quarter

Hourly Weather History & Observations

Time (CDT) Temp. Heat Index Dew Point Humidity Pressure Visibility Wind Dir Wind Speed Gust Speed Precip Events Conditions
12:56 AM 61.0 °F - 54.0 °F 78% 29.91 in 10.0 mi SSE 5.8 mph - N/A   Overcast
1:56 AM 60.1 °F - 55.0 °F 83% 29.88 in 10.0 mi SSE 6.9 mph - N/A   Clear
2:56 AM 59.0 °F - 57.0 °F 93% 29.86 in 10.0 mi SSE 8.1 mph - N/A   Clear
3:56 AM 59.0 °F - 57.0 °F 93% 29.84 in 10.0 mi SSE 8.1 mph - N/A   Scattered Clouds
4:56 AM 60.1 °F - 59.0 °F 96% 29.83 in 10.0 mi South 6.9 mph - N/A   Partly Cloudy
5:56 AM 60.1 °F - 59.0 °F 96% 29.81 in 10.0 mi South 8.1 mph - N/A   Clear
6:56 AM 60.1 °F - 59.0 °F 96% 29.81 in 10.0 mi South 5.8 mph - N/A   Clear
7:56 AM 60.1 °F - 59.0 °F 96% 29.80 in 10.0 mi South 6.9 mph - N/A   Clear
8:56 AM 64.0 °F - 60.1 °F 87% 29.78 in 10.0 mi South 9.2 mph - N/A   Clear
9:56 AM 69.1 °F - 62.1 °F 78% 29.76 in 10.0 mi SSW 10.4 mph 16.1 mph N/A   Clear
10:56 AM 73.0 °F - 62.1 °F 68% 29.74 in 10.0 mi SSW 11.5 mph 16.1 mph N/A   Clear
11:56 AM 75.9 °F - 64.0 °F 67% 29.71 in 10.0 mi SSW 10.4 mph 17.3 mph N/A   Clear
12:56 PM 79.0 °F - 64.9 °F 62% 29.67 in 10.0 mi South 13.8 mph 17.3 mph N/A   Clear
1:56 PM 79.0 °F - 66.0 °F 64% 29.65 in 10.0 mi SSW 9.2 mph - N/A   Clear
2:56 PM 80.1 °F 82.3 °F 66.9 °F 64% 29.63 in 10.0 mi SSW 8.1 mph - N/A   Clear
3:56 PM 81.0 °F 84.1 °F 69.1 °F 67% 29.59 in 10.0 mi South 9.2 mph 17.3 mph N/A   Clear
4:56 PM 82.0 °F 85.9 °F 70.0 °F 67% 29.56 in 10.0 mi SSW 12.7 mph 17.3 mph N/A   Clear
5:56 PM 80.1 °F 83.2 °F 70.0 °F 71% 29.55 in 10.0 mi SW 11.5 mph - N/A   Mostly Cloudy
6:30 PM 78.8 °F - 71.6 °F 78% 29.54 in 10.0 mi WSW 9.2 mph - 0.00 in Rain , Thunderstorm Light Rain
6:54 PM 68.0 °F - 62.6 °F 83% 29.61 in 1.8 mi West 40.3 mph 64.4 mph 0.15 in Rain , Thunderstorm Heavy Thunderstorms and Rain
6:56 PM 64.9 °F - 62.1 °F 90% 29.59 in 1.2 mi WNW 34.5 mph 64.4 mph 0.21 in Rain , Thunderstorm Heavy Thunderstorms and Rain
7:05 PM 66.2 °F - 57.2 °F 73% 29.57 in 4.0 mi WNW 20.7 mph 48.3 mph 0.02 in Rain , Thunderstorm Thunderstorms and Rain
7:27 PM 64.4 °F - 60.8 °F 88% 29.55 in 10.0 mi West 9.2 mph - 0.03 in Rain Light Rain
7:41 PM 62.6 °F - 62.6 °F 100% 29.60 in 10.0 mi South 17.3 mph 23.0 mph 0.03 in Rain , Thunderstorm Light Rain
7:56 PM 66.9 °F - 62.1 °F 84% 29.59 in 10.0 mi SSW 6.9 mph - 0.03 in   Mostly Cloudy
8:56 PM 66.0 °F - 63.0 °F 90% 29.59 in 10.0 mi WSW 9.2 mph - N/A   Partly Cloudy
9:56 PM 64.9 °F - 63.0 °F 93% 29.61 in 10.0 mi West 10.4 mph - N/A   Clear
10:56 PM 64.0 °F - 62.1 °F 93% 29.62 in 10.0 mi West 8.1 mph - N/A   Clear
11:56 PM 62.1 °F - 61.0 °F 96% 29.63 in 10.0 mi West 9.2 mph - N/A   Clear